Back to catalog

NOAA 17 DEB

AlivePO
NORAD 48718·DEBRIS·🇺🇸 United States

Launched Jun 24, 2002 from Vandenberg Space Force Base

Loading…

Next Passes (next 24 hours)

TLE

FreshSource: Space-Track

Epoch: Sep 14, 2026, 11:05 UTC

1 48718U 02032BB  26257.46187489  .00006380  00000-0  11997-2 0  9990
2 48718  98.9565 333.7555 0015153 230.8934 129.0920 14.64954053289268

Track NOAA 17 DEB in real time with AllMySat

Download on the App Store